| time (UTC) | temp F | wind direction | speed MPH | gust MPH | rain 1hr in | rain 24hr in | rain mn in | humidity % | barometer mb |
| 20260504021554 | 61 | 110 | 1.0 | 8.0 | 0.00 | 0.00 | 0.00 | 75 | 1013.7 |
| 20260504020051 | 61 | 84 | 3.0 | 8.0 | 0.00 | 0.00 | 0.00 | 75 | 1013.5 |
| 20260504014606 | 61 | 137 | 3.0 | 7.0 | 0.00 | 0.00 | 0.00 | 76 | 1013.4 |
| 20260504013059 | 62 | 148 | 1.0 | 10.0 | 0.00 | 0.00 | 0.00 | 76 | 1013.3 |
| 20260504011558 | 62 | 178 | 1.0 | 7.0 | 0.00 | 0.00 | 0.00 | 76 | 1013.4 |
| 20260504010058 | 63 | 165 | 1.0 | 9.0 | 0.00 | 0.00 | 0.00 | 75 | 1013.2 |
| 20260504004553 | 63 | 118 | 1.0 | 6.0 | 0.00 | 0.00 | 0.00 | 75 | 1013.1 |
| 20260504003100 | 63 | 0 | 1.0 | 10.0 | 0.00 | 0.00 | 0.00 | 75 | 1013.0 |
| 20260504001613 | 63 | 207 | 2.0 | 9.0 | 0.00 | 0.00 | 0.00 | 75 | 1013.1 |
| 20260504000056 | 63 | 119 | 2.0 | 10.0 | 0.00 | 0.00 | 0.00 | 76 | 1012.8 |
| 20260503234554 | 63 | 135 | 2.0 | 9.0 | 0.00 | 0.00 | 0.00 | 76 | 1013.0 |
| 20260503233053 | 63 | 0 | 2.0 | 10.0 | 0.00 | 0.00 | 0.00 | 76 | 1012.7 |
| 20260503231558 | 64 | 157 | 4.0 | 10.0 | 0.00 | 0.00 | 0.00 | 75 | 1013.1 |
| 20260503230100 | 64 | 108 | 1.0 | 13.0 | 0.00 | 0.00 | 0.00 | 73 | 1013.2 |
| 20260503224555 | 64 | 128 | 1.0 | 9.0 | 0.00 | 0.00 | 0.00 | 72 | 1013.3 |
| 20260503223052 | 64 | 134 | 2.0 | 12.0 | 0.00 | 0.00 | 0.00 | 71 | 1013.5 |
| 20260503221552 | 65 | 113 | 3.0 | 8.0 | 0.00 | 0.00 | 0.00 | 69 | 1013.5 |
| 20260503220055 | 65 | 163 | 3.0 | 13.0 | 0.00 | 0.00 | 0.00 | 69 | 1013.5 |
| 20260503214550 | 66 | 161 | 1.0 | 9.0 | 0.00 | 0.00 | 0.00 | 65 | 1013.7 |
| 20260503213057 | 66 | 146 | 1.0 | 8.0 | 0.00 | 0.00 | 0.00 | 65 | 1013.7 |
| 20260503211554 | 67 | 134 | 3.0 | 11.0 | 0.00 | 0.00 | 0.00 | 64 | 1013.6 |
| 20260503204553 | 67 | 123 | 1.0 | 8.0 | 0.00 | 0.00 | 0.00 | 64 | 1013.8 |
| 20260503203056 | 66 | 94 | 2.0 | 11.0 | 0.00 | 0.00 | 0.00 | 63 | 1013.7 |
| 20260503201554 | 66 | 153 | 1.0 | 8.0 | 0.00 | 0.00 | 0.00 | 64 | 1013.9 |
| 20260503200057 | 66 | 140 | 3.0 | 9.0 | 0.00 | 0.00 | 0.00 | 64 | 1013.9 |
| 20260503194553 | 66 | 0 | 1.0 | 8.0 | 0.00 | 0.00 | 0.00 | 65 | 1014.1 |
| 20260503193054 | 67 | 72 | 0.0 | 6.0 | 0.00 | 0.00 | 0.00 | 65 | 1014.2 |
| 20260503191557 | 67 | 138 | 2.0 | 7.0 | 0.00 | 0.00 | 0.00 | 65 | 1014.3 |
| 20260503190055 | 67 | 0 | 3.0 | 10.0 | 0.00 | 0.00 | 0.00 | 66 | 1014.3 |
| 20260503184608 | 66 | 81 | 1.0 | 4.0 | 0.00 | 0.00 | 0.00 | 68 | 1014.5 |
| 20260503183106 | 66 | 148 | 1.0 | 6.0 | 0.00 | 0.00 | 0.00 | 69 | 1014.6 |
| 20260503181610 | 64 | 49 | 0.0 | 7.0 | 0.00 | 0.00 | 0.00 | 72 | 1014.6 |
| 20260503180056 | 64 | 182 | 0.0 | 5.0 | 0.00 | 0.00 | 0.00 | 73 | 1014.7 |
| 20260503174557 | 64 | 152 | 0.0 | 4.0 | 0.00 | 0.00 | 0.00 | 74 | 1014.8 |
| 20260503173102 | 63 | 174 | 0.0 | 5.0 | 0.00 | 0.00 | 0.00 | 75 | 1014.7 |
| 20260503171552 | 63 | 0 | 0.0 | 4.0 | 0.00 | 0.00 | 0.00 | 75 | 1014.5 |
| 20260503081622 | 60 | 76 | 1.0 | 4.0 | 0.00 | 0.00 | 0.00 | 83 | 1013.4 |
| 20260503080110 | 60 | 0 | 0.0 | 3.0 | 0.00 | 0.00 | 0.00 | 84 | 1013.3 |
| 20260503071554 | 60 | 148 | 0.0 | 2.0 | 0.00 | 0.00 | 0.00 | 85 | 1013.0 |
| 20260503070106 | 60 | 156 | 0.0 | 2.0 | 0.00 | 0.00 | 0.00 | 86 | 1012.9 |
| 20260503054555 | 60 | 148 | 0.0 | 4.0 | 0.00 | 0.00 | 0.00 | 88 | 1012.9 |
| 20260503053053 | 60 | 206 | 0.0 | 4.0 | 0.00 | 0.00 | 0.00 | 88 | 1012.9 |
| 20260503051557 | 60 | 121 | 1.0 | 6.0 | 0.00 | 0.00 | 0.00 | 88 | 1012.9 |
| 20260503050051 | 60 | 145 | 0.0 | 3.0 | 0.00 | 0.00 | 0.00 | 89 | 1013.0 |
| 20260503044604 | 60 | 140 | 0.0 | 5.0 | 0.00 | 0.00 | 0.00 | 88 | 1013.0 |
| 20260503043059 | 60 | 0 | 1.0 | 5.0 | 0.00 | 0.00 | 0.00 | 88 | 1012.8 |
| 20260503041554 | 60 | 107 | 0.0 | 6.0 | 0.00 | 0.00 | 0.00 | 88 | 1012.6 |
| 20260503040059 | 60 | 150 | 0.0 | 5.0 | 0.00 | 0.00 | 0.00 | 88 | 1012.2 |
| 20260503034555 | 60 | 0 | 0.0 | 6.0 | 0.00 | 0.00 | 0.00 | 87 | 1012.0 |
| 20260503033120 | 60 | 139 | 1.0 | 7.0 | 0.00 | 0.00 | 0.00 | 87 | 1011.7 |
| 20260503031600 | 60 | 0 | 0.0 | 2.0 | 0.00 | 0.00 | 0.00 | 87 | 1011.5 |
| 20260503030114 | 60 | 0 | 0.0 | 4.0 | 0.00 | 0.00 | 0.00 | 86 | 1011.2 |
| 20260503024621 | 61 | 155 | 1.0 | 4.0 | 0.00 | 0.00 | 0.00 | 85 | 1010.8 |
| 20260503023050 | 61 | 163 | 1.0 | 10.0 | 0.00 | 0.00 | 0.00 | 84 | 1010.8 |